sat.trackr.live / text

‹ back to catalog

STARLINK-32245

NORAD 62133 · 2024-222V

PAYLOAD ACTIVE UNKNOWN

§ Identity

Operator
Country
US
Launch date
2024-11-27
Launch site
AFETR
Launch vehicle
Mass (kg)
RCS (m²)

Purposes: comms

External: N2YO · Heavens-Above · Gunter

§ Orbital elements

Epoch: 2026-05-24T23:09:59.702112Z

Period
94.27 min
Inclination
43.0045°
Eccentricity
0.0001492
Mean motion
15.27591077 rev/d
Perigee alt
482.0 km
Apogee alt
484.0 km
Semi-major
6,861.2 km
B*
8.9592e-4
RAAN
65.4747°
Arg perigee
261.1627°
Mean anomaly
98.9056°
Rev number
8,457

§ Raw data

STARLINK-322451 62133U 24222V   26144.96527433  .00024482  00000+0  89592-3 0  99982 62133  43.0045  65.4747 0001492 261.1627  98.9056 15.27591077 84572

JSON: /api/v1/satellites/62133 · /tle

For live sub-satellite position, see the globe view (requires WebGL).

§ Visibility from observer

Set your observer location to see the next 7 days of passes ≥ 10°. The values pass through the URL so the page stays shareable.

No JS? Fill the form by hand. The geolocation button needs JavaScript.